period_start,C,m1,H,J0,J1,J2,J3,J4,J5,JA,JB,JC,JD,JJ,JK,JN,#
2016-11-19 00:03:06,0.01,0.36,0.00,22.63,27.31,30.79,14.70,48.34,1015.15,2030.99,3404.58,3046.00,3426.85,601.06,597.17,12.01,0000 0000 0000 0000 000000
2016-11-19 00:08:07,0.05,0.37,0.00,22.65,27.33,30.81,14.72,48.63,1015.15,2030.97,3403.42,3045.53,3425.81,600.65,596.58,12.06,0000 0000 0000 0000 000000
2016-11-19 00:13:09,0.15,0.37,0.00,22.62,27.35,30.84,14.68,48.26,1015.15,2030.93,3399.71,3043.27,3423.40,600.31,596.37,12.11,0000 0000 0000 0000 000000
2016-11-19 00:18:10,0.03,0.38,0.00,22.70,27.37,30.84,14.46,47.82,1015.17,2030.81,3398.51,3042.84,3422.58,599.57,595.32,12.16,0000 0000 0000 0000 000000
2016-11-19 00:23:12,-0.00,0.38,0.00,22.72,27.40,30.88,14.64,48.35,1015.17,2030.36,3397.66,3042.09,3421.96,600.26,595.95,12.21,0000 0000 0000 0000 000000
2016-11-19 00:28:13,-0.00,0.38,0.00,22.68,27.42,30.89,14.53,47.95,1015.17,2030.09,3396.77,3041.94,3421.14,599.39,594.95,12.26,0000 0000 0000 0000 000000
2016-11-19 00:33:15,0.04,0.38,0.00,22.70,27.44,30.90,14.56,48.31,1015.17,2030.05,3396.01,3041.29,3420.55,600.24,596.04,12.31,0000 0000 0000 0000 000000
2016-11-19 00:38:16,0.01,0.38,0.00,22.75,27.47,30.91,14.53,48.15,1015.23,2030.02,3395.22,3041.01,3420.02,599.92,595.24,12.36,0000 0000 0000 0000 000000
2016-11-19 00:43:17,0.01,0.38,0.00,22.74,27.49,30.93,14.50,47.83,1015.37,2030.00,3394.77,3040.99,3419.73,599.10,594.95,12.41,0000 0000 0000 0000 000000
2016-11-19 00:48:18,0.02,0.38,0.00,22.78,27.51,30.96,14.58,48.16,1015.42,2030.00,3394.04,3040.77,3419.04,599.94,595.90,12.46,0000 0000 0000 0000 000000
2016-11-19 00:53:20,0.04,0.38,0.00,22.81,27.53,30.98,14.81,48.77,1015.57,2030.00,3393.24,3040.14,3418.48,601.27,597.13,12.51,0000 0000 0000 0000 000000
2016-11-19 00:58:21,0.02,0.39,0.00,22.85,27.55,31.02,14.66,48.58,1015.64,2030.00,3392.09,3039.94,3417.89,601.21,596.63,12.56,0000 0000 0000 0000 000000
2016-11-19 01:03:22,0.04,0.39,0.00,22.86,27.57,31.01,14.56,47.88,1015.64,2029.99,3391.16,3039.27,3417.07,599.73,595.48,12.61,0000 0000 0000 0000 000000
2016-11-19 01:08:24,0.02,0.39,0.00,22.89,27.59,31.04,14.54,47.93,1015.65,2029.95,3390.56,3039.00,3416.59,599.79,595.51,12.66,0000 0000 0000 0000 000000
2016-11-19 01:13:25,0.01,0.39,0.00,22.90,27.61,31.05,14.64,48.06,1015.66,2029.77,3389.68,3038.59,3415.99,600.72,596.55,12.71,0000 0000 0000 0000 000000
2016-11-19 01:18:26,0.02,0.39,0.00,22.96,27.63,31.06,14.53,48.05,1015.68,2029.54,3388.95,3038.03,3415.34,599.21,594.88,12.76,0000 0000 0000 0000 000000
2016-11-19 01:23:27,-0.02,0.39,0.00,22.98,27.66,31.09,14.55,47.88,1015.73,2029.24,3388.11,3037.99,3414.91,600.64,596.22,12.81,0000 0000 0000 0000 000000
2016-11-19 01:28:29,0.03,0.39,0.00,22.95,27.68,31.11,14.58,48.31,1015.83,2029.04,3387.13,3037.58,3414.09,600.58,596.26,12.86,0000 0000 0000 0000 000000
2016-11-19 01:33:30,0.02,0.39,0.00,23.00,27.70,31.14,14.50,48.40,1016.07,2029.01,3386.47,3037.07,3413.82,600.17,595.81,12.91,0000 0000 0000 0000 000000
2016-11-19 01:38:31,0.02,0.39,0.00,23.08,27.72,31.16,14.55,47.95,1016.12,2029.00,3385.68,3037.00,3413.05,599.65,595.20,12.96,0000 0000 0000 0000 000000
2016-11-19 01:43:33,0.01,0.39,0.00,23.05,27.74,31.16,14.57,47.92,1016.12,2029.00,3385.00,3036.93,3412.86,600.02,595.59,13.01,0000 0000 0000 0000 000000
2016-11-19 01:48:34,0.04,0.40,0.00,23.05,27.76,31.19,14.59,47.96,1016.13,2029.00,3384.30,3036.39,3412.08,600.60,596.17,13.06,0000 0000 0000 0000 000000
2016-11-19 01:53:35,0.03,0.40,0.00,23.06,27.78,31.23,14.53,47.58,1016.13,2028.99,3383.44,3036.00,3411.49,599.48,595.23,13.11,0000 0000 0000 0000 000000
2016-11-19 01:58:37,0.01,0.40,0.00,23.05,27.81,31.23,14.54,48.13,1016.13,2028.99,3382.66,3035.95,3410.99,600.21,595.95,13.16,0000 0000 0000 0000 000000
2016-11-19 02:03:38,0.04,0.40,0.00,23.12,27.82,31.24,14.57,47.98,1016.14,2028.97,3382.01,3035.32,3410.36,600.56,596.07,13.21,0000 0000 0000 0000 000000
2016-11-19 02:08:39,-0.01,0.40,0.00,23.13,27.85,31.26,14.59,47.94,1016.15,2028.75,3381.22,3035.01,3410.00,599.98,595.54,13.26,0000 0000 0000 0000 000000
2016-11-19 02:13:40,0.00,0.40,0.00,23.08,27.87,31.30,14.57,48.14,1016.17,2028.51,3380.86,3035.00,3409.62,599.11,594.83,13.31,0000 0000 0000 0000 000000
2016-11-19 02:18:41,0.01,0.40,0.00,23.14,27.89,31.31,14.56,48.16,1016.24,2028.46,3380.10,3034.98,3409.02,600.63,596.08,13.36,0000 0000 0000 0000 000000
2016-11-19 02:23:42,-0.00,0.40,0.00,23.21,27.91,31.32,14.56,48.41,1016.30,2028.14,3379.55,3034.65,3408.89,599.56,594.99,13.41,0000 0000 0000 0000 000000
2016-11-19 02:28:44,0.02,0.40,0.00,23.18,27.93,31.32,14.61,47.83,1016.52,2028.07,3379.00,3034.14,3408.11,599.87,595.52,13.46,0000 0000 0000 0000 000000
2016-11-19 02:33:45,0.01,0.40,0.00,23.18,27.95,31.35,14.66,48.96,1016.61,2028.02,3378.20,3034.00,3407.85,601.36,597.09,13.51,0000 0000 0000 0000 000000
2016-11-19 02:38:47,0.02,0.40,0.00,23.25,27.97,31.37,14.57,48.63,1016.61,2028.00,3377.54,3033.94,3407.08,601.40,596.71,13.56,0000 0000 0000 0000 000000
2016-11-19 02:43:48,0.03,0.41,0.00,23.24,27.99,31.41,14.60,48.64,1016.62,2028.00,3376.89,3033.36,3406.74,601.07,596.61,13.61,0000 0000 0000 0000 000000
2016-11-19 02:48:49,0.02,0.41,0.00,23.24,28.01,31.42,14.62,48.32,1016.62,2028.00,3376.13,3033.04,3406.06,600.10,595.63,13.66,0000 0000 0000 0000 000000
2016-11-19 02:53:50,0.00,0.41,0.00,23.29,28.03,31.41,14.49,47.81,1016.62,2028.00,3375.83,3033.00,3405.96,599.20,594.63,13.71,0000 0000 0000 0000 000000
2016-11-19 02:58:52,0.02,0.41,0.00,23.28,28.05,31.44,14.59,47.97,1016.62,2027.98,3375.12,3032.99,3405.38,599.91,595.50,13.76,0000 0000 0000 0000 000000
2016-11-19 03:03:53,0.01,0.41,0.00,23.28,28.07,31.46,14.46,47.70,1016.63,2027.98,3374.54,3032.86,3405.00,599.69,595.21,13.81,0000 0000 0000 0000 000000
2016-11-19 03:08:54,0.02,0.41,0.00,23.33,28.10,31.48,14.44,47.96,1016.65,2027.94,3374.01,3032.28,3404.49,599.26,594.70,13.86,0000 0000 0000 0000 000000
2016-11-19 03:13:56,0.00,0.41,0.00,23.37,28.12,31.49,14.57,47.77,1016.66,2027.79,3373.38,3032.03,3404.00,599.46,594.85,13.91,0000 0000 0000 0000 000000
2016-11-19 03:18:57,-0.02,0.41,0.00,23.38,28.14,31.50,14.59,47.98,1016.72,2027.41,3372.84,3032.00,3403.70,600.46,595.76,13.96,0000 0000 0000 0000 000000
2016-11-19 03:23:58,0.00,0.41,0.00,23.41,28.16,31.54,14.47,47.40,1016.76,2027.16,3372.09,3031.95,3403.03,598.94,594.31,14.02,0000 0000 0000 0000 000000
2016-11-19 03:28:59,0.03,0.41,0.00,23.42,28.18,31.55,14.36,47.58,1016.68,2027.07,3371.53,3031.40,3402.68,599.48,594.74,14.07,0000 0000 0000 0000 000000
2016-11-19 03:34:01,0.15,0.41,0.00,23.45,28.20,31.55,14.60,47.76,1016.70,2027.01,3369.04,3029.72,3400.57,600.80,595.79,14.12,0000 0000 0000 0000 000000
2016-11-19 03:39:02,0.49,0.44,0.00,23.47,28.22,31.57,14.54,47.55,1016.75,2027.00,3359.58,3023.06,3393.26,599.18,594.33,14.17,0000 0000 0000 0000 000000
2016-11-19 03:44:03,0.16,0.45,0.00,23.44,28.24,31.61,14.54,47.39,1016.90,2026.99,3353.65,3019.33,3389.04,599.75,595.10,14.22,0000 0000 0000 0000 000000
2016-11-19 03:49:05,0.13,0.46,0.00,23.50,28.26,31.62,14.56,47.79,1017.05,2026.99,3350.56,3017.56,3386.96,600.50,595.73,14.27,0000 0000 0000 0000 000000
2016-11-19 03:54:06,0.08,0.46,0.00,23.56,28.28,31.65,14.56,47.83,1017.09,2026.98,3348.41,3016.21,3385.38,599.88,595.09,14.32,0000 0000 0000 0000 000000
2016-11-19 03:59:07,0.03,0.47,0.00,23.54,28.30,31.66,14.47,47.63,1017.10,2026.93,3347.20,3015.79,3384.56,599.44,594.94,14.37,0000 0000 0000 0000 000000
2016-11-19 04:04:09,0.01,0.47,0.00,23.51,28.32,31.69,14.57,47.51,1017.10,2026.74,3345.93,3015.05,3383.81,599.81,595.09,14.42,0000 0000 0000 0000 000000
2016-11-19 04:09:10,0.01,0.47,0.00,23.59,28.34,31.70,14.49,47.23,1017.10,2026.38,3344.86,3014.76,3382.98,599.72,594.86,14.47,0000 0000 0000 0000 000000
2016-11-19 04:14:11,0.06,0.47,0.00,23.60,28.36,31.73,14.53,47.57,1017.10,2026.09,3343.30,3013.73,3381.78,599.98,595.12,14.52,0000 0000 0000 0000 000000
2016-11-19 04:19:13,0.05,0.47,0.00,23.56,28.38,31.75,14.51,47.77,1017.11,2026.02,3341.74,3012.80,3380.54,600.01,595.20,14.57,0000 0000 0000 0000 000000
2016-11-19 04:24:14,0.04,0.47,0.00,23.61,28.40,31.76,14.45,47.20,1017.11,2026.01,3340.61,3012.05,3379.66,599.31,594.41,14.62,0000 0000 0000 0000 000000
2016-11-19 04:29:15,0.05,0.48,0.00,23.65,28.42,31.78,14.56,47.38,1017.12,2026.00,3339.36,3011.43,3378.74,600.09,594.97,14.67,0000 0000 0000 0000 000000
2016-11-19 04:34:16,0.02,0.48,0.00,23.64,28.44,31.80,14.57,47.76,1017.13,2026.00,3338.35,3011.00,3378.01,600.48,595.47,14.72,0000 0000 0000 0000 000000
2016-11-19 04:39:17,0.02,0.48,0.00,23.68,28.46,31.79,14.53,47.30,1017.15,2025.99,3337.70,3010.83,3377.29,599.46,594.38,14.77,0000 0000 0000 0000 000000
2016-11-19 04:44:18,0.03,0.48,0.00,23.75,28.48,31.83,14.60,48.52,1017.20,2025.98,3336.98,3010.17,3376.99,600.36,595.22,14.82,0000 0000 0000 0000 000000
2016-11-19 04:49:20,0.02,0.48,0.00,23.70,28.50,31.85,14.57,48.98,1017.29,2025.94,3336.18,3010.00,3376.37,599.81,594.83,14.87,0000 0000 0000 0000 000000
2016-11-19 04:54:21,0.00,0.48,0.00,23.76,28.51,31.87,14.56,48.91,1017.46,2025.87,3335.81,3009.99,3376.00,600.16,595.31,14.92,0000 0000 0000 0000 000000
2016-11-19 04:59:22,-0.01,0.48,0.00,23.84,28.52,31.88,14.43,48.30,1017.58,2025.57,3335.04,3009.89,3375.76,599.85,594.77,14.97,0000 0000 0000 0000 000000
2016-11-19 05:04:24,0.02,0.48,0.00,23.82,28.55,31.89,14.54,48.32,1017.59,2025.32,3334.58,3009.43,3375.06,599.99,594.96,15.02,0000 0000 0000 0000 000000
2016-11-19 05:09:25,0.00,0.49,0.00,23.89,28.57,31.93,14.45,47.77,1017.59,2025.30,3334.01,3009.10,3374.99,599.42,594.17,15.07,0000 0000 0000 0000 000000
2016-11-19 05:14:26,0.01,0.49,0.00,23.92,28.59,31.95,14.45,47.93,1017.59,2025.12,3333.49,3009.01,3374.46,599.56,594.33,15.12,0000 0000 0000 0000 000000
2016-11-19 05:19:27,0.00,0.49,0.00,23.89,28.61,31.96,14.48,47.73,1017.61,2025.05,3332.96,3009.00,3374.01,599.60,594.42,15.17,0000 0000 0000 0000 000000
2016-11-19 05:24:29,0.02,0.49,0.00,23.99,28.63,32.00,14.54,47.58,1017.62,2025.01,3332.13,3008.96,3373.67,600.04,594.67,15.22,0000 0000 0000 0000 000000
2016-11-19 05:29:30,0.03,0.49,0.00,24.11,28.65,32.03,14.47,47.83,1017.63,2025.00,3331.62,3008.39,3373.03,599.71,594.13,15.27,0000 0000 0000 0000 000000
2016-11-19 05:34:31,0.01,0.49,0.00,24.11,28.68,32.05,14.49,47.73,1017.64,2025.00,3330.95,3008.02,3372.69,599.98,594.38,15.32,0000 0000 0000 0000 000000
2016-11-19 05:39:32,0.02,0.49,0.00,24.10,28.70,32.07,14.48,48.02,1017.80,2024.99,3330.18,3008.00,3372.02,600.07,594.58,15.37,0000 0000 0000 0000 000000
2016-11-19 05:44:34,0.02,0.49,0.00,24.18,28.73,32.11,14.60,48.07,1017.91,2024.98,3329.73,3007.93,3371.77,600.73,595.16,15.42,0000 0000 0000 0000 000000
2016-11-19 05:49:35,0.03,0.49,0.00,24.18,28.75,32.13,14.62,48.63,1018.03,2024.93,3328.95,3007.20,3371.03,599.64,594.03,15.47,0000 0000 0000 0000 000000
2016-11-19 05:54:36,-0.01,0.49,0.00,24.16,28.77,32.14,14.51,47.89,1018.07,2024.62,3328.10,3007.01,3370.67,599.73,594.36,15.52,0000 0000 0000 0000 000000
2016-11-19 05:59:37,-0.01,0.49,0.00,24.24,28.80,32.18,14.57,48.02,1018.08,2024.27,3327.68,3007.00,3370.04,600.58,594.97,15.57,0000 0000 0000 0000 000000
2016-11-19 06:04:39,0.01,0.49,0.00,24.25,28.82,32.20,14.44,47.78,1018.08,2024.09,3327.03,3006.84,3369.71,599.76,594.17,15.62,0000 0000 0000 0000 000000
2016-11-19 06:09:40,0.03,0.49,0.00,24.24,28.85,32.21,14.57,48.23,1018.08,2024.01,3326.37,3006.11,3369.03,600.02,594.53,15.67,0000 0000 0000 0000 000000
2016-11-19 06:14:41,0.00,0.49,0.00,24.30,28.87,32.24,14.56,48.04,1018.08,2024.00,3325.98,3006.01,3368.76,599.93,594.45,15.72,0000 0000 0000 0000 000000
2016-11-19 06:19:43,0.02,0.50,0.00,24.32,28.90,32.26,14.44,48.27,1018.08,2024.00,3325.22,3005.98,3368.05,599.95,594.19,15.77,0000 0000 0000 0000 000000
2016-11-19 06:24:44,0.01,0.50,0.00,24.30,28.91,32.27,14.50,48.33,1018.08,2023.98,3324.83,3005.74,3367.84,600.08,594.43,15.82,0000 0000 0000 0000 000000
2016-11-19 06:29:45,0.03,0.50,0.00,24.32,28.94,32.30,14.49,48.09,1018.08,2023.98,3324.05,3005.13,3367.13,599.85,594.12,15.87,0000 0000 0000 0000 000000
2016-11-19 06:34:47,0.01,0.50,0.00,24.35,28.96,32.32,14.55,48.41,1018.08,2023.88,3323.59,3005.01,3366.96,599.94,594.23,15.92,0000 0000 0000 0000 000000
2016-11-19 06:39:48,-0.01,0.50,0.00,24.33,28.98,32.33,14.57,48.28,1018.09,2023.61,3323.01,3004.98,3366.23,600.34,594.54,15.97,0000 0000 0000 0000 000000
2016-11-19 06:44:49,-0.01,0.50,0.00,24.36,29.01,32.35,14.43,47.97,1018.09,2023.23,3322.38,3004.74,3366.00,599.83,593.93,16.02,0000 0000 0000 0000 000000
2016-11-19 06:49:50,0.02,0.50,0.00,24.36,29.02,32.37,14.52,48.14,1018.11,2023.08,3321.88,3004.19,3365.59,600.30,594.50,16.07,0000 0000 0000 0000 000000
2016-11-19 06:54:52,0.02,0.50,0.00,24.37,29.05,32.38,14.48,47.76,1018.16,2023.06,3321.08,3004.00,3365.03,599.81,593.95,16.12,0000 0000 0000 0000 000000
2016-11-19 06:59:53,0.01,0.50,0.00,24.38,29.07,32.39,14.46,47.92,1018.25,2023.01,3320.69,3004.00,3364.93,600.11,594.31,16.17,0000 0000 0000 0000 000000
2016-11-19 07:04:54,0.02,0.50,0.00,24.37,29.09,32.39,14.48,48.39,1018.37,2023.00,3320.02,3003.94,3364.23,599.90,594.22,16.22,0000 0000 0000 0000 000000
2016-11-19 07:09:55,0.03,0.50,0.00,24.37,29.10,32.41,14.55,48.26,1018.53,2023.00,3319.50,3003.37,3363.99,599.76,594.21,16.27,0000 0000 0000 0000 000000
2016-11-19 07:14:57,0.02,0.50,0.00,24.40,29.12,32.42,14.53,47.94,1018.57,2023.00,3319.00,3003.06,3363.58,600.07,594.61,16.32,0000 0000 0000 0000 000000
2016-11-19 07:19:58,0.02,0.51,0.00,24.38,29.14,32.41,14.51,48.08,1018.56,2023.00,3318.22,3003.00,3363.01,600.02,594.48,16.38,0000 0000 0000 0000 000000
2016-11-19 07:24:59,0.00,0.51,0.00,24.39,29.16,32.43,14.43,47.99,1018.56,2022.99,3317.96,3002.99,3362.90,599.41,593.90,16.43,0000 0000 0000 0000 000000
2016-11-19 07:30:01,0.03,0.51,0.00,24.40,29.17,32.44,14.56,47.84,1018.56,2022.99,3317.20,3002.83,3362.15,599.52,594.01,16.48,0000 0000 0000 0000 000000
2016-11-19 07:35:02,0.01,0.51,0.00,24.39,29.19,32.43,14.58,48.08,1018.57,2022.98,3316.88,3002.31,3361.99,600.02,594.41,16.53,0000 0000 0000 0000 000000
2016-11-19 07:40:03,0.02,0.51,0.00,24.39,29.20,32.45,14.44,47.62,1018.57,2022.95,3316.11,3002.03,3361.57,599.88,594.27,16.58,0000 0000 0000 0000 000000
2016-11-19 07:45:05,-0.00,0.51,0.00,24.42,29.22,32.48,14.65,48.51,1018.57,2022.85,3315.71,3002.00,3361.02,599.87,594.37,16.63,0000 0000 0000 0000 000000
2016-11-19 07:50:05,0.00,0.51,0.00,24.42,29.22,32.46,14.52,48.46,1018.56,2022.68,3315.04,3001.97,3360.92,600.25,594.59,16.68,0000 0000 0000 0000 000000
2016-11-19 07:55:07,0.00,0.51,0.00,24.42,29.25,32.48,14.57,48.28,1018.56,2022.45,3314.70,3001.74,3360.17,599.78,594.08,16.73,0000 0000 0000 0000 000000
2016-11-19 08:00:08,0.02,0.51,0.00,24.43,29.25,32.49,14.48,47.98,1018.57,2022.31,3314.03,3001.24,3360.00,600.10,594.40,16.78,0000 0000 0000 0000 000000
2016-11-19 08:05:09,0.01,0.51,0.00,24.38,29.26,32.45,14.62,48.23,1018.57,2022.13,3313.61,3001.01,3359.55,600.89,595.27,16.83,0000 0000 0000 0000 000000
2016-11-19 08:10:10,0.00,0.51,0.00,24.39,29.27,32.48,14.50,47.78,1018.57,2022.04,3313.01,3001.00,3359.03,599.91,594.22,16.88,0000 0000 0000 0000 000000
2016-11-19 08:15:12,0.01,0.51,0.00,24.41,29.27,32.47,14.46,47.88,1018.57,2022.04,3312.48,3000.99,3358.92,600.05,594.47,16.93,0000 0000 0000 0000 000000
2016-11-19 08:20:13,0.01,0.51,0.00,24.41,29.28,32.48,14.57,48.24,1018.57,2022.03,3312.01,3000.89,3358.36,600.24,594.58,16.98,0000 0000 0000 0000 000000
2016-11-19 08:25:15,0.03,0.51,0.00,24.41,29.29,32.47,14.47,48.14,1018.57,2022.02,3311.42,3000.34,3358.00,599.84,594.09,17.03,0000 0000 0000 0000 000000
2016-11-19 08:30:15,0.01,0.51,0.00,24.42,29.30,32.49,14.55,48.20,1018.57,2022.02,3310.89,3000.03,3357.80,599.55,593.97,17.08,0000 0000 0000 0000 000000
2016-11-19 08:35:17,0.02,0.52,0.00,24.40,29.30,32.47,14.59,48.09,1018.57,2022.00,3310.09,3000.00,3357.07,599.74,594.21,17.13,0000 0000 0000 0000 000000
2016-11-19 08:40:18,0.01,0.52,0.00,24.41,29.30,32.48,14.56,48.21,1018.57,2022.01,3309.59,2999.99,3356.98,599.94,594.29,17.18,0000 0000 0000 0000 000000
2016-11-19 08:45:19,0.01,0.52,0.00,24.45,29.30,32.50,14.36,47.68,1018.58,2022.01,3309.02,2999.93,3356.51,599.05,593.33,17.23,0000 0000 0000 0000 000000
2016-11-19 08:50:20,0.02,0.52,0.00,24.45,29.30,32.49,14.50,47.77,1018.58,2022.01,3308.57,2999.68,3356.03,599.72,594.00,17.28,0000 0000 0000 0000 000000
2016-11-19 08:55:22,0.02,0.52,0.00,24.43,29.30,32.48,14.56,48.06,1018.60,2022.02,3307.99,2999.14,3355.95,600.11,594.43,17.33,0000 0000 0000 0000 000000
2016-11-19 09:00:23,0.02,0.52,0.00,24.45,29.30,32.48,14.52,47.80,1018.64,2022.03,3307.46,2999.02,3355.51,599.66,593.98,17.38,0000 0000 0000 0000 000000
2016-11-19 09:05:24,0.00,0.52,0.00,24.45,29.30,32.48,14.59,48.11,1018.64,2022.00,3306.98,2999.00,3355.02,600.68,594.97,17.43,0000 0000 0000 0000 000000
2016-11-19 09:10:25,0.01,0.52,0.00,24.44,29.30,32.48,14.54,48.05,1018.73,2022.02,3306.31,2998.98,3354.97,599.94,594.34,17.48,0000 0000 0000 0000 000000
2016-11-19 09:15:26,0.01,0.52,0.00,24.46,29.29,32.46,14.50,47.81,1018.95,2022.01,3305.98,2998.86,3354.44,599.96,594.33,17.53,0000 0000 0000 0000 000000
2016-11-19 09:20:28,0.02,0.52,0.00,24.45,29.29,32.46,14.52,47.73,1018.70,2022.03,3305.29,2998.55,3354.01,600.49,594.84,17.58,0000 0000 0000 0000 000000
2016-11-19 09:25:29,0.01,0.52,0.00,24.48,29.30,32.46,14.41,47.74,1018.62,2022.03,3305.00,2998.21,3353.98,599.75,593.96,17.63,0000 0000 0000 0000 000000
2016-11-19 09:30:30,0.01,0.53,0.00,24.47,29.30,32.46,14.57,47.85,1018.59,2022.03,3304.57,2998.03,3353.59,600.52,594.73,17.68,0000 0000 0000 0000 000000
2016-11-19 09:35:32,0.01,0.53,0.00,24.47,29.30,32.47,14.57,48.00,1018.75,2022.02,3304.02,2998.00,3353.06,599.33,593.52,17.73,0000 0000 0000 0000 000000
2016-11-19 09:40:33,0.01,0.53,0.00,24.45,29.30,32.47,14.51,47.95,1018.81,2022.05,3303.85,2998.00,3353.00,599.93,594.28,17.78,0000 0000 0000 0000 000000
2016-11-19 09:45:34,0.01,0.53,0.00,24.45,29.29,32.48,14.53,48.18,1018.90,2022.03,3303.07,2997.97,3352.72,600.08,594.54,17.83,0000 0000 0000 0000 000000
2016-11-19 09:50:35,0.02,0.53,0.00,24.46,29.28,32.46,14.55,48.43,1019.00,2022.00,3302.78,2997.71,3352.07,600.44,595.17,17.88,0000 0000 0000 0000 000000
2016-11-19 09:55:36,0.02,0.53,0.00,24.44,29.27,32.45,14.55,48.41,1019.00,2022.02,3302.09,2997.44,3352.00,600.05,594.50,17.93,0000 0000 0000 0000 000000
2016-11-19 10:00:37,0.01,0.53,0.00,24.47,29.27,32.46,14.57,48.27,1018.99,2022.04,3301.97,2997.16,3351.97,599.79,594.33,17.98,0000 0000 0000 0000 000000
2016-11-19 10:05:39,0.02,0.53,0.00,24.50,29.27,32.45,14.53,48.56,1019.04,2022.05,3301.53,2997.03,3351.56,600.43,594.87,18.03,0000 0000 0000 0000 000000
2016-11-19 10:10:40,0.00,0.53,0.00,24.48,29.27,32.45,14.50,48.55,1019.06,2022.02,3300.97,2996.99,3351.02,599.82,594.34,18.08,0000 0000 0000 0000 000000
2016-11-19 10:15:41,0.02,0.53,0.00,24.53,29.27,32.46,14.47,47.69,1019.06,2022.06,3300.19,2996.96,3350.89,599.39,593.64,18.13,0000 0000 0000 0000 000000
2016-11-19 10:20:42,0.02,0.53,0.00,24.53,29.27,32.46,14.52,47.82,1019.06,2022.10,3299.99,2996.76,3350.22,600.04,594.41,18.18,0000 0000 0000 0000 000000
2016-11-19 10:25:44,0.02,0.54,0.00,24.52,29.27,32.46,14.59,47.64,1019.06,2022.14,3299.52,2996.37,3350.01,600.14,594.63,18.23,0000 0000 0000 0000 000000
2016-11-19 10:30:45,0.02,0.54,0.00,24.52,29.27,32.45,14.54,47.68,1019.06,2022.25,3299.01,2996.07,3349.96,600.14,594.56,18.28,0000 0000 0000 0000 000000
2016-11-19 10:35:47,0.00,0.54,0.00,24.54,29.27,32.45,14.54,47.56,1019.06,2022.18,3298.82,2996.00,3349.40,599.75,594.12,18.33,0000 0000 0000 0000 000000
2016-11-19 10:40:48,0.01,0.54,0.00,24.53,29.27,32.43,14.59,47.72,1019.07,2022.15,3298.14,2996.00,3349.02,600.03,594.40,18.38,0000 0000 0000 0000 000000
2016-11-19 10:45:49,-0.01,0.54,0.00,24.56,29.27,32.42,14.53,47.69,1019.07,2022.09,3297.99,2995.99,3348.99,599.94,594.29,18.43,0000 0000 0000 0000 000000
2016-11-19 10:50:51,0.00,0.54,0.00,24.56,29.27,32.43,14.49,47.49,1019.07,2022.08,3297.80,2995.93,3348.85,599.60,593.97,18.48,0000 0000 0000 0000 000000
2016-11-19 10:55:52,0.04,0.54,0.00,24.56,29.27,32.44,14.52,47.53,1019.07,2022.05,3297.05,2995.38,3348.11,600.21,594.62,18.53,0000 0000 0000 0000 000000
2016-11-19 11:00:54,0.00,0.54,0.00,24.58,29.27,32.42,14.42,47.54,1019.10,2022.02,3296.94,2995.05,3348.00,599.55,593.90,18.58,0000 0000 0000 0000 000000
2016-11-19 11:05:55,0.02,0.54,0.00,24.59,29.26,32.44,14.55,47.77,1019.11,2022.04,3296.38,2995.02,3347.99,600.03,594.39,18.63,0000 0000 0000 0000 000000
2016-11-19 11:10:56,0.01,0.54,0.00,24.57,29.26,32.42,14.56,47.45,1019.15,2022.08,3296.03,2995.01,3347.78,599.83,594.12,18.68,0000 0000 0000 0000 000000
2016-11-19 11:15:57,0.00,0.54,0.00,24.58,29.25,32.44,14.44,47.44,1019.32,2022.05,3295.98,2995.00,3347.18,599.50,593.96,18.73,0000 0000 0000 0000 000000
2016-11-19 11:20:59,0.01,0.54,0.00,24.60,29.25,32.42,14.55,47.39,1019.44,2022.07,3295.63,2995.00,3347.00,600.10,594.57,18.78,0000 0000 0000 0000 000000
2016-11-19 11:26:00,0.00,0.54,0.00,24.59,29.25,32.42,14.45,47.65,1019.44,2022.08,3295.07,2994.97,3347.00,600.33,594.79,18.83,0000 0000 0000 0000 000000
2016-11-19 11:31:01,0.01,0.54,0.00,24.58,29.25,32.41,14.58,48.33,1019.50,2022.05,3294.86,2994.80,3346.94,600.44,595.12,18.89,0000 0000 0000 0000 000000
2016-11-19 11:36:03,0.03,0.54,0.00,24.60,29.25,32.40,14.44,47.67,1019.53,2022.08,3294.21,2994.55,3346.41,598.92,593.47,18.94,0000 0000 0000 0000 000000
2016-11-19 11:41:04,0.02,0.55,0.00,24.61,29.25,32.40,14.40,47.49,1019.55,2022.15,3294.01,2994.30,3346.09,599.87,594.40,18.99,0000 0000 0000 0000 000000
2016-11-19 11:46:05,0.00,0.55,0.00,24.62,29.25,32.41,14.46,47.47,1019.55,2022.18,3294.00,2994.13,3346.01,599.56,594.03,19.04,0000 0000 0000 0000 000000
2016-11-19 11:51:06,0.01,0.55,0.00,24.62,29.25,32.42,14.51,48.43,1019.55,2022.13,3293.45,2994.04,3345.98,600.00,594.63,19.09,0000 0000 0000 0000 000000
2016-11-19 11:56:08,0.01,0.55,0.00,24.60,29.25,32.42,14.49,47.38,1019.55,2022.22,3293.14,2994.00,3345.96,599.83,594.38,19.14,0000 0000 0000 0000 000000
2016-11-19 12:01:09,-0.00,0.55,0.00,24.63,29.24,32.40,14.53,47.66,1019.55,2022.17,3293.00,2994.00,3345.61,599.95,594.33,19.19,0000 0000 0000 0000 000000
2016-11-19 12:06:10,0.03,0.55,0.00,24.64,29.24,32.42,14.47,47.48,1019.54,2022.34,3292.93,2994.00,3345.12,599.99,594.39,19.24,0000 0000 0000 0000 000000
2016-11-19 12:11:11,0.00,0.55,0.00,24.62,29.23,32.41,14.50,47.82,1019.55,2022.24,3292.27,2993.97,3345.01,600.17,594.46,19.29,0000 0000 0000 0000 000000
2016-11-19 12:16:13,0.01,0.55,0.00,24.62,29.22,32.41,14.45,47.43,1019.55,2022.21,3292.00,2993.91,3344.99,599.72,594.20,19.34,0000 0000 0000 0000 000000
2016-11-19 12:21:14,0.00,0.55,0.00,24.68,29.22,32.42,14.49,47.39,1019.55,2022.24,3291.99,2993.83,3344.95,600.18,594.59,19.39,0000 0000 0000 0000 000000
2016-11-19 12:26:15,0.02,0.55,0.00,24.65,29.22,32.39,14.50,47.68,1019.55,2022.26,3291.91,2993.59,3344.57,599.79,594.15,19.44,0000 0000 0000 0000 000000
2016-11-19 12:31:17,0.02,0.55,0.00,24.67,29.22,32.39,14.50,47.40,1019.55,2022.22,3291.24,2993.25,3344.08,599.91,594.29,19.49,0000 0000 0000 0000 000000
2016-11-19 12:36:18,-0.01,0.55,0.00,24.65,29.22,32.38,14.59,47.95,1019.55,2022.16,3291.01,2993.03,3344.00,600.68,595.10,19.54,0000 0000 0000 0000 000000
2016-11-19 12:41:19,0.01,0.55,0.00,24.66,29.22,32.39,14.55,47.73,1019.55,2022.11,3290.99,2993.00,3344.00,600.35,594.82,19.59,0000 0000 0000 0000 000000
2016-11-19 12:46:21,-0.00,0.55,0.00,24.69,29.22,32.37,14.56,47.88,1019.55,2022.14,3290.89,2993.01,3343.97,600.16,594.41,19.64,0000 0000 0000 0000 000000
2016-11-19 12:51:22,0.02,0.55,0.00,24.70,29.22,32.38,14.44,47.53,1019.55,2022.26,3290.57,2993.00,3343.88,599.60,593.89,19.69,0000 0000 0000 0000 000000
2016-11-19 12:56:23,0.02,0.55,0.00,24.64,29.22,32.38,14.48,47.50,1019.55,2022.36,3290.06,2993.00,3343.49,600.07,594.49,19.74,0000 0000 0000 0000 000000